owner,sensor,date,latitude,longitude,air_temperature,qcFlag 
DISL,ioos:station:DISL:MHPA:1,2017-02-01T00:00:00Z,30.6671,-87.9365,15.61,1111122 
DISL,ioos:station:DISL:MHPA:1,2017-02-01T00:30:00Z,30.6671,-87.9365,15.54,1111122 
DISL,ioos:station:DISL:MHPA:1,2017-02-01T01:00:00Z,30.6671,-87.9365,15.14,1111122 
DISL,ioos:station:DISL:MHPA:1,2017-02-01T01:30:00Z,30.6671,-87.9365,15.03,1111122 
DISL,ioos:station:DISL:MHPA:1,2017-02-01T02:00:00Z,30.6671,-87.9365,14.8,1111122 
DISL,ioos:station:DISL:MHPA:1,2017-02-01T02:30:00Z,30.6671,-87.9365,14.6,1111122 
DISL,ioos:station:DISL:MHPA:1,2017-02-01T03:00:00Z,30.6671,-87.9365,14.47,1111122 
DISL,ioos:station:DISL:MHPA:1,2017-02-01T03:30:00Z,30.6671,-87.9365,14.61,1111122 
DISL,ioos:station:DISL:MHPA:1,2017-02-01T04:00:00Z,30.6671,-87.9365,14.74,1111122 
DISL,ioos:station:DISL:MHPA:1,2017-02-01T04:30:00Z,30.6671,-87.9365,14.88,1111122 
DISL,ioos:station:DISL:MHPA:1,2017-02-01T05:00:00Z,30.6671,-87.9365,14.71,1111122 
DISL,ioos:station:DISL:MHPA:1,2017-02-01T05:30:00Z,30.6671,-87.9365,14.44,1111122 
DISL,ioos:station:DISL:MHPA:1,2017-02-01T06:00:00Z,30.6671,-87.9365,14.58,1111122 
DISL,ioos:station:DISL:MHPA:1,2017-02-01T06:30:00Z,30.6671,-87.9365,14.38,1111122 
DISL,ioos:station:DISL:MHPA:1,2017-02-01T07:00:00Z,30.6671,-87.9365,14.48,1111122 
DISL,ioos:station:DISL:MHPA:1,2017-02-01T07:30:00Z,30.6671,-87.9365,14.48,1111122 
DISL,ioos:station:DISL:MHPA:1,2017-02-01T08:00:00Z,30.6671,-87.9365,14.51,1111122 
DISL,ioos:station:DISL:MHPA:1,2017-02-01T08:30:00Z,30.6671,-87.9365,14.41,1111122 
DISL,ioos:station:DISL:MHPA:1,2017-02-01T09:00:00Z,30.6671,-87.9365,14.21,1111122 
DISL,ioos:station:DISL:MHPA:1,2017-02-01T09:30:00Z,30.6671,-87.9365,14.21,1111122 
DISL,ioos:station:DISL:MHPA:1,2017-02-01T10:00:00Z,30.6671,-87.9365,14.31,1111122 
DISL,ioos:station:DISL:MHPA:1,2017-02-01T10:30:00Z,30.6671,-87.9365,13.97,1111122 
DISL,ioos:station:DISL:MHPA:1,2017-02-01T11:00:00Z,30.6671,-87.9365,14.11,1111122 
DISL,ioos:station:DISL:MHPA:1,2017-02-01T11:30:00Z,30.6671,-87.9365,13.9,1111122 
DISL,ioos:station:DISL:MHPA:1,2017-02-01T12:00:00Z,30.6671,-87.9365,13.9,1111122 
DISL,ioos:station:DISL:MHPA:1,2017-02-01T12:30:00Z,30.6671,-87.9365,13.7,1111122 
DISL,ioos:station:DISL:MHPA:1,2017-02-01T13:00:00Z,30.6671,-87.9365,13.74,1111122 
DISL,ioos:station:DISL:MHPA:1,2017-02-01T13:30:00Z,30.6671,-87.9365,14.65,1111122 
DISL,ioos:station:DISL:MHPA:1,2017-02-01T14:00:00Z,30.6671,-87.9365,15.42,1111122 
DISL,ioos:station:DISL:MHPA:1,2017-02-01T14:30:00Z,30.6671,-87.9365,16.62,1111122 
DISL,ioos:station:DISL:MHPA:1,2017-02-01T15:00:00Z,30.6671,-87.9365,16.92,1111122 
DISL,ioos:station:DISL:MHPA:1,2017-02-01T15:30:00Z,30.6671,-87.9365,17.18,1111122 
DISL,ioos:station:DISL:MHPA:1,2017-02-01T16:00:00Z,30.6671,-87.9365,17.62,1111122 
DISL,ioos:station:DISL:MHPA:1,2017-02-01T16:30:00Z,30.6671,-87.9365,17.88,1111122 
DISL,ioos:station:DISL:MHPA:1,2017-02-01T17:00:00Z,30.6671,-87.9365,18.11,1111122 
DISL,ioos:station:DISL:MHPA:1,2017-02-01T17:30:00Z,30.6671,-87.9365,18.24,1111122 
DISL,ioos:station:DISL:MHPA:1,2017-02-01T18:00:00Z,30.6671,-87.9365,18.54,1111122 
DISL,ioos:station:DISL:MHPA:1,2017-02-01T18:30:00Z,30.6671,-87.9365,18.74,1111122 
DISL,ioos:station:DISL:MHPA:1,2017-02-01T19:00:00Z,30.6671,-87.9365,18.78,1111122 
DISL,ioos:station:DISL:MHPA:1,2017-02-01T19:30:00Z,30.6671,-87.9365,18.74,1111122 
DISL,ioos:station:DISL:MHPA:1,2017-02-01T20:00:00Z,30.6671,-87.9365,18.72,1111122 
DISL,ioos:station:DISL:MHPA:1,2017-02-01T20:30:00Z,30.6671,-87.9365,18.78,1111122 
DISL,ioos:station:DISL:MHPA:1,2017-02-01T21:00:00Z,30.6671,-87.9365,18.58,1111122 
DISL,ioos:station:DISL:MHPA:1,2017-02-01T21:30:00Z,30.6671,-87.9365,18.47,1111122 
DISL,ioos:station:DISL:MHPA:1,2017-02-01T22:00:00Z,30.6671,-87.9365,18.61,1111122 
DISL,ioos:station:DISL:MHPA:1,2017-02-01T22:30:00Z,30.6671,-87.9365,18.24,1111122 
DISL,ioos:station:DISL:MHPA:1,2017-02-01T23:00:00Z,30.6671,-87.9365,17.63,1111122 
DISL,ioos:station:DISL:MHPA:1,2017-02-01T23:30:00Z,30.6671,-87.9365,17.34,1111122 
DISL,ioos:station:DISL:MHPA:1,2017-02-02T00:00:00Z,30.6671,-87.9365,16.74,1111122 
DISL,ioos:station:DISL:MHPA:1,2017-02-02T00:30:00Z,30.6671,-87.9365,16.68,1111122 
DISL,ioos:station:DISL:MHPA:1,2017-02-02T01:00:00Z,30.6671,-87.9365,17.2,1111122 
DISL,ioos:station:DISL:MHPA:1,2017-02-02T01:30:00Z,30.6671,-87.9365,16.99,1111122 
DISL,ioos:station:DISL:MHPA:1,2017-02-02T02:00:00Z,30.6671,-87.9365,17.03,1111122 
DISL,ioos:station:DISL:MHPA:1,2017-02-02T02:30:00Z,30.6671,-87.9365,16.82,1111122 
DISL,ioos:station:DISL:MHPA:1,2017-02-02T03:00:00Z,30.6671,-87.9365,16.66,1111122 
DISL,ioos:station:DISL:MHPA:1,2017-02-02T03:30:00Z,30.6671,-87.9365,16.69,1111122 
DISL,ioos:station:DISL:MHPA:1,2017-02-02T04:00:00Z,30.6671,-87.9365,16.59,1111122 
DISL,ioos:station:DISL:MHPA:1,2017-02-02T04:30:00Z,30.6671,-87.9365,16.28,1111122 
DISL,ioos:station:DISL:MHPA:1,2017-02-02T05:00:00Z,30.6671,-87.9365,16.11,1111122 
DISL,ioos:station:DISL:MHPA:1,2017-02-02T05:30:00Z,30.6671,-87.9365,15.95,1111122 
DISL,ioos:station:DISL:MHPA:1,2017-02-02T06:00:00Z,30.6671,-87.9365,15.24,1111122 
DISL,ioos:station:DISL:MHPA:1,2017-02-02T06:30:00Z,30.6671,-87.9365,14.68,1111122 
DISL,ioos:station:DISL:MHPA:1,2017-02-02T07:00:00Z,30.6671,-87.9365,14.21,1111122 
DISL,ioos:station:DISL:MHPA:1,2017-02-02T07:30:00Z,30.6671,-87.9365,13.63,1111122 
DISL,ioos:station:DISL:MHPA:1,2017-02-02T08:00:00Z,30.6671,-87.9365,13.5,1111122 
DISL,ioos:station:DISL:MHPA:1,2017-02-02T08:30:00Z,30.6671,-87.9365,13.36,1111122 
DISL,ioos:station:DISL:MHPA:1,2017-02-02T09:00:00Z,30.6671,-87.9365,13.57,1111122 
DISL,ioos:station:DISL:MHPA:1,2017-02-02T09:30:00Z,30.6671,-87.9365,13.2,1111122 
DISL,ioos:station:DISL:MHPA:1,2017-02-02T10:00:00Z,30.6671,-87.9365,12.69,1111122 
DISL,ioos:station:DISL:MHPA:1,2017-02-02T10:30:00Z,30.6671,-87.9365,12.49,1111122 
DISL,ioos:station:DISL:MHPA:1,2017-02-02T11:00:00Z,30.6671,-87.9365,12.32,1111122 
DISL,ioos:station:DISL:MHPA:1,2017-02-02T11:30:00Z,30.6671,-87.9365,12.36,1111122 
DISL,ioos:station:DISL:MHPA:1,2017-02-02T12:00:00Z,30.6671,-87.9365,12.36,1111122 
DISL,ioos:station:DISL:MHPA:1,2017-02-02T12:30:00Z,30.6671,-87.9365,12.12,1111122 
DISL,ioos:station:DISL:MHPA:1,2017-02-02T13:00:00Z,30.6671,-87.9365,11.99,1111122 
DISL,ioos:station:DISL:MHPA:1,2017-02-02T14:00:00Z,30.6671,-87.9365,14.38,1111122 
DISL,ioos:station:DISL:MHPA:1,2017-02-02T14:30:00Z,30.6671,-87.9365,14.93,1111122 
DISL,ioos:station:DISL:MHPA:1,2017-02-02T15:00:00Z,30.6671,-87.9365,14.46,1111122 
DISL,ioos:station:DISL:MHPA:1,2017-02-02T15:30:00Z,30.6671,-87.9365,16.06,1111122 
DISL,ioos:station:DISL:MHPA:1,2017-02-02T16:00:00Z,30.6671,-87.9365,15.21,1111122 
DISL,ioos:station:DISL:MHPA:1,2017-02-02T16:30:00Z,30.6671,-87.9365,16.28,1111122 
DISL,ioos:station:DISL:MHPA:1,2017-02-02T17:00:00Z,30.6671,-87.9365,16.72,1111122 
DISL,ioos:station:DISL:MHPA:1,2017-02-02T17:30:00Z,30.6671,-87.9365,17.61,1111122 
DISL,ioos:station:DISL:MHPA:1,2017-02-02T18:00:00Z,30.6671,-87.9365,18.46,1111122 
DISL,ioos:station:DISL:MHPA:1,2017-02-02T18:30:00Z,30.6671,-87.9365,19.13,1111122 
DISL,ioos:station:DISL:MHPA:1,2017-02-02T19:00:00Z,30.6671,-87.9365,18.74,1111122 
DISL,ioos:station:DISL:MHPA:1,2017-02-02T19:30:00Z,30.6671,-87.9365,19.05,1111122 
DISL,ioos:station:DISL:MHPA:1,2017-02-02T20:00:00Z,30.6671,-87.9365,19.25,1111122 
DISL,ioos:station:DISL:MHPA:1,2017-02-02T20:30:00Z,30.6671,-87.9365,19.12,1111122 
DISL,ioos:station:DISL:MHPA:1,2017-02-02T21:00:00Z,30.6671,-87.9365,18.78,1111122 
DISL,ioos:station:DISL:MHPA:1,2017-02-02T21:30:00Z,30.6671,-87.9365,18.64,1111122 
DISL,ioos:station:DISL:MHPA:1,2017-02-02T22:00:00Z,30.6671,-87.9365,18.47,1111122 
DISL,ioos:station:DISL:MHPA:1,2017-02-02T23:00:00Z,30.6671,-87.9365,17.87,1111122 
DISL,ioos:station:DISL:MHPA:1,2017-02-02T23:30:00Z,30.6671,-87.9365,17.77,1111122 
DISL,ioos:station:DISL:MHPA:1,2017-02-03T00:00:00Z,30.6671,-87.9365,17.45,1111122 
DISL,ioos:station:DISL:MHPA:1,2017-02-03T00:30:00Z,30.6671,-87.9365,17.45,1111122 
DISL,ioos:station:DISL:MHPA:1,2017-02-03T01:00:00Z,30.6671,-87.9365,17.32,1111122 
DISL,ioos:station:DISL:MHPA:1,2017-02-03T01:30:00Z,30.6671,-87.9365,17.19,1111122 
DISL,ioos:station:DISL:MHPA:1,2017-02-03T02:00:00Z,30.6671,-87.9365,16.99,1111122 
DISL,ioos:station:DISL:MHPA:1,2017-02-03T02:30:00Z,30.6671,-87.9365,17.03,1111122 
DISL,ioos:station:DISL:MHPA:1,2017-02-03T03:00:00Z,30.6671,-87.9365,16.86,1111122 
DISL,ioos:station:DISL:MHPA:1,2017-02-03T03:30:00Z,30.6671,-87.9365,16.55,1111122 
DISL,ioos:station:DISL:MHPA:1,2017-02-03T04:00:00Z,30.6671,-87.9365,16.42,1111122 
DISL,ioos:station:DISL:MHPA:1,2017-02-03T04:30:00Z,30.6671,-87.9365,16.18,1111122 
DISL,ioos:station:DISL:MHPA:1,2017-02-03T05:00:00Z,30.6671,-87.9365,15.71,1111122 
DISL,ioos:station:DISL:MHPA:1,2017-02-03T05:30:00Z,30.6671,-87.9365,15.84,1111122 
DISL,ioos:station:DISL:MHPA:1,2017-02-03T06:00:00Z,30.6671,-87.9365,15.74,1111122 
DISL,ioos:station:DISL:MHPA:1,2017-02-03T06:30:00Z,30.6671,-87.9365,15.44,1111122 
DISL,ioos:station:DISL:MHPA:1,2017-02-03T07:00:00Z,30.6671,-87.9365,14.83,1111122 
DISL,ioos:station:DISL:MHPA:1,2017-02-03T07:30:00Z,30.6671,-87.9365,14.93,1111122 
DISL,ioos:station:DISL:MHPA:1,2017-02-03T08:00:00Z,30.6671,-87.9365,15.07,1111122 
DISL,ioos:station:DISL:MHPA:1,2017-02-03T08:30:00Z,30.6671,-87.9365,15.2,1111122 
DISL,ioos:station:DISL:MHPA:1,2017-02-03T09:00:00Z,30.6671,-87.9365,15.24,1111122 
DISL,ioos:station:DISL:MHPA:1,2017-02-03T09:30:00Z,30.6671,-87.9365,14.87,1111122 
DISL,ioos:station:DISL:MHPA:1,2017-02-03T10:00:00Z,30.6671,-87.9365,14.73,1111122 
DISL,ioos:station:DISL:MHPA:1,2017-02-03T10:30:00Z,30.6671,-87.9365,14.53,1111122 
DISL,ioos:station:DISL:MHPA:1,2017-02-03T11:00:00Z,30.6671,-87.9365,14.39,1111122 
DISL,ioos:station:DISL:MHPA:1,2017-02-03T11:30:00Z,30.6671,-87.9365,14.09,1111122 
DISL,ioos:station:DISL:MHPA:1,2017-02-03T12:00:00Z,30.6671,-87.9365,14.03,1111122 
DISL,ioos:station:DISL:MHPA:1,2017-02-03T12:30:00Z,30.6671,-87.9365,13.65,1111122 
DISL,ioos:station:DISL:MHPA:1,2017-02-03T13:00:00Z,30.6671,-87.9365,13.39,1111122 
DISL,ioos:station:DISL:MHPA:1,2017-02-03T13:30:00Z,30.6671,-87.9365,13.32,1111122 
DISL,ioos:station:DISL:MHPA:1,2017-02-03T14:00:00Z,30.6671,-87.9365,13.32,1111122 
DISL,ioos:station:DISL:MHPA:1,2017-02-03T14:30:00Z,30.6671,-87.9365,13.25,1111122 
DISL,ioos:station:DISL:MHPA:1,2017-02-03T15:00:00Z,30.6671,-87.9365,13.05,1111122 
DISL,ioos:station:DISL:MHPA:1,2017-02-03T15:30:00Z,30.6671,-87.9365,12.51,1111122 
DISL,ioos:station:DISL:MHPA:1,2017-02-03T16:00:00Z,30.6671,-87.9365,11.46,1111122 
DISL,ioos:station:DISL:MHPA:1,2017-02-03T16:30:00Z,30.6671,-87.9365,10.79,1111122 
DISL,ioos:station:DISL:MHPA:1,2017-02-03T17:00:00Z,30.6671,-87.9365,10.63,1111122 
DISL,ioos:station:DISL:MHPA:1,2017-02-03T17:30:00Z,30.6671,-87.9365,10.56,1111122 
DISL,ioos:station:DISL:MHPA:1,2017-02-03T18:00:00Z,30.6671,-87.9365,11.1,1111122 
DISL,ioos:station:DISL:MHPA:1,2017-02-03T18:30:00Z,30.6671,-87.9365,11.17,1111122 
DISL,ioos:station:DISL:MHPA:1,2017-02-03T19:00:00Z,30.6671,-87.9365,11.77,1111122 
DISL,ioos:station:DISL:MHPA:1,2017-02-03T19:30:00Z,30.6671,-87.9365,11.77,1111122 
DISL,ioos:station:DISL:MHPA:1,2017-02-03T20:00:00Z,30.6671,-87.9365,12.5,1111122 
DISL,ioos:station:DISL:MHPA:1,2017-02-03T20:30:00Z,30.6671,-87.9365,12.57,1111122 
DISL,ioos:station:DISL:MHPA:1,2017-02-03T21:00:00Z,30.6671,-87.9365,12.33,1111122 
DISL,ioos:station:DISL:MHPA:1,2017-02-03T21:30:00Z,30.6671,-87.9365,12.16,1111122 
DISL,ioos:station:DISL:MHPA:1,2017-02-03T22:00:00Z,30.6671,-87.9365,12.26,1111122 
DISL,ioos:station:DISL:MHPA:1,2017-02-03T22:30:00Z,30.6671,-87.9365,11.89,1111122 
DISL,ioos:station:DISL:MHPA:1,2017-02-03T23:00:00Z,30.6671,-87.9365,11.52,1111122 
DISL,ioos:station:DISL:MHPA:1,2017-02-03T23:30:00Z,30.6671,-87.9365,10.93,1111122 
DISL,ioos:station:DISL:MHPA:1,2017-02-04T00:00:00Z,30.6671,-87.9365,10.33,1111122 
DISL,ioos:station:DISL:MHPA:1,2017-02-04T00:30:00Z,30.6671,-87.9365,10.06,1111122 
DISL,ioos:station:DISL:MHPA:1,2017-02-04T01:00:00Z,30.6671,-87.9365,9.76,1111122 
DISL,ioos:station:DISL:MHPA:1,2017-02-04T01:30:00Z,30.6671,-87.9365,9.43,1111122 
DISL,ioos:station:DISL:MHPA:1,2017-02-04T02:00:00Z,30.6671,-87.9365,8.99,1111122 
DISL,ioos:station:DISL:MHPA:1,2017-02-04T02:30:00Z,30.6671,-87.9365,8.85,1111122 
DISL,ioos:station:DISL:MHPA:1,2017-02-04T03:00:00Z,30.6671,-87.9365,8.78,1111122 
DISL,ioos:station:DISL:MHPA:1,2017-02-04T03:30:00Z,30.6671,-87.9365,8.65,1111122 
DISL,ioos:station:DISL:MHPA:1,2017-02-04T04:00:00Z,30.6671,-87.9365,8.39,1111122 
DISL,ioos:station:DISL:MHPA:1,2017-02-04T04:30:00Z,30.6671,-87.9365,8.46,1111122 
DISL,ioos:station:DISL:MHPA:1,2017-02-04T05:00:00Z,30.6671,-87.9365,8.59,1111122 
DISL,ioos:station:DISL:MHPA:1,2017-02-04T05:30:00Z,30.6671,-87.9365,8.19,1111122 
DISL,ioos:station:DISL:MHPA:1,2017-02-04T06:00:00Z,30.6671,-87.9365,7.48,1111122 
DISL,ioos:station:DISL:MHPA:1,2017-02-04T06:30:00Z,30.6671,-87.9365,6.906,1111122 
DISL,ioos:station:DISL:MHPA:1,2017-02-04T07:00:00Z,30.6671,-87.9365,6.5,1111122 
DISL,ioos:station:DISL:MHPA:1,2017-02-04T07:30:00Z,30.6671,-87.9365,5.963,1111122 
DISL,ioos:station:DISL:MHPA:1,2017-02-04T08:00:00Z,30.6671,-87.9365,5.459,1111122 
DISL,ioos:station:DISL:MHPA:1,2017-02-04T08:30:00Z,30.6671,-87.9365,4.952,1111122 
DISL,ioos:station:DISL:MHPA:1,2017-02-04T09:00:00Z,30.6671,-87.9365,4.516,1111122 
DISL,ioos:station:DISL:MHPA:1,2017-02-04T09:30:00Z,30.6671,-87.9365,4.114,1111122 
DISL,ioos:station:DISL:MHPA:1,2017-02-04T10:00:00Z,30.6671,-87.9365,3.572,1111122 
DISL,ioos:station:DISL:MHPA:1,2017-02-04T10:30:00Z,30.6671,-87.9365,3.133,1111122 
DISL,ioos:station:DISL:MHPA:1,2017-02-04T11:00:00Z,30.6671,-87.9365,2.694,1111122 
DISL,ioos:station:DISL:MHPA:1,2017-02-04T11:30:00Z,30.6671,-87.9365,2.596,1111122 
DISL,ioos:station:DISL:MHPA:1,2017-02-04T12:00:00Z,30.6671,-87.9365,2.362,1111122 
DISL,ioos:station:DISL:MHPA:1,2017-02-04T12:30:00Z,30.6671,-87.9365,2.227,1111122 
DISL,ioos:station:DISL:MHPA:1,2017-02-04T13:00:00Z,30.6671,-87.9365,2.096,1111122 
DISL,ioos:station:DISL:MHPA:1,2017-02-04T13:30:00Z,30.6671,-87.9365,3.009,1111122 
DISL,ioos:station:DISL:MHPA:1,2017-02-04T14:00:00Z,30.6671,-87.9365,3.439,1111122 
DISL,ioos:station:DISL:MHPA:1,2017-02-04T14:30:00Z,30.6671,-87.9365,4.553,1111122 
DISL,ioos:station:DISL:MHPA:1,2017-02-04T15:00:00Z,30.6671,-87.9365,5.39,1111122 
DISL,ioos:station:DISL:MHPA:1,2017-02-04T15:30:00Z,30.6671,-87.9365,6.365,1111122 
DISL,ioos:station:DISL:MHPA:1,2017-02-04T16:00:00Z,30.6671,-87.9365,7.128,1111122 
DISL,ioos:station:DISL:MHPA:1,2017-02-04T16:30:00Z,30.6671,-87.9365,8.44,1111122 
DISL,ioos:station:DISL:MHPA:1,2017-02-04T17:00:00Z,30.6671,-87.9365,9.04,1111122 
DISL,ioos:station:DISL:MHPA:1,2017-02-04T17:30:00Z,30.6671,-87.9365,9.84,1111122 
DISL,ioos:station:DISL:MHPA:1,2017-02-04T18:00:00Z,30.6671,-87.9365,11.02,1111122 
DISL,ioos:station:DISL:MHPA:1,2017-02-04T18:30:00Z,30.6671,-87.9365,11.52,1111122 
DISL,ioos:station:DISL:MHPA:1,2017-02-04T19:00:00Z,30.6671,-87.9365,12.2,1111122 
DISL,ioos:station:DISL:MHPA:1,2017-02-04T19:30:00Z,30.6671,-87.9365,12.77,1111122 
DISL,ioos:station:DISL:MHPA:1,2017-02-04T20:00:00Z,30.6671,-87.9365,13.18,1111122 
DISL,ioos:station:DISL:MHPA:1,2017-02-04T20:30:00Z,30.6671,-87.9365,13.24,1111122 
DISL,ioos:station:DISL:MHPA:1,2017-02-04T21:00:00Z,30.6671,-87.9365,13.51,1111122 
DISL,ioos:station:DISL:MHPA:1,2017-02-04T21:30:00Z,30.6671,-87.9365,13.75,1111122 
DISL,ioos:station:DISL:MHPA:1,2017-02-04T22:00:00Z,30.6671,-87.9365,13.81,1111122 
DISL,ioos:station:DISL:MHPA:1,2017-02-04T22:30:00Z,30.6671,-87.9365,13.91,1111122 
DISL,ioos:station:DISL:MHPA:1,2017-02-04T23:00:00Z,30.6671,-87.9365,14.21,1111122 
DISL,ioos:station:DISL:MHPA:1,2017-02-04T23:30:00Z,30.6671,-87.9365,13.41,1111122 
DISL,ioos:station:DISL:MHPA:1,2017-02-05T00:00:00Z,30.6671,-87.9365,12.31,1111122 
DISL,ioos:station:DISL:MHPA:1,2017-02-05T00:30:00Z,30.6671,-87.9365,11.58,1111122 
DISL,ioos:station:DISL:MHPA:1,2017-02-05T01:00:00Z,30.6671,-87.9365,10.91,1111122 
DISL,ioos:station:DISL:MHPA:1,2017-02-05T01:30:00Z,30.6671,-87.9365,10.27,1111122 
DISL,ioos:station:DISL:MHPA:1,2017-02-05T02:00:00Z,30.6671,-87.9365,10.1,1111122 
DISL,ioos:station:DISL:MHPA:1,2017-02-05T02:30:00Z,30.6671,-87.9365,9.97,1111122 
DISL,ioos:station:DISL:MHPA:1,2017-02-05T03:00:00Z,30.6671,-87.9365,9.76,1111122 
DISL,ioos:station:DISL:MHPA:1,2017-02-05T03:30:00Z,30.6671,-87.9365,9.26,1111122 
DISL,ioos:station:DISL:MHPA:1,2017-02-05T04:00:00Z,30.6671,-87.9365,8.72,1111122 
DISL,ioos:station:DISL:MHPA:1,2017-02-05T04:30:00Z,30.6671,-87.9365,9.27,1111122 
DISL,ioos:station:DISL:MHPA:1,2017-02-05T05:00:00Z,30.6671,-87.9365,8.96,1111122 
DISL,ioos:station:DISL:MHPA:1,2017-02-05T05:30:00Z,30.6671,-87.9365,8.36,1111122 
DISL,ioos:station:DISL:MHPA:1,2017-02-05T06:00:00Z,30.6671,-87.9365,8.6,1111122 
DISL,ioos:station:DISL:MHPA:1,2017-02-05T06:30:00Z,30.6671,-87.9365,8.83,1111122 
DISL,ioos:station:DISL:MHPA:1,2017-02-05T07:00:00Z,30.6671,-87.9365,8.9,1111122 
DISL,ioos:station:DISL:MHPA:1,2017-02-05T07:30:00Z,30.6671,-87.9365,8.9,1111122 
DISL,ioos:station:DISL:MHPA:1,2017-02-05T08:00:00Z,30.6671,-87.9365,8.53,1111122 
DISL,ioos:station:DISL:MHPA:1,2017-02-05T08:30:00Z,30.6671,-87.9365,7.717,1111122 
DISL,ioos:station:DISL:MHPA:1,2017-02-05T09:00:00Z,30.6671,-87.9365,7.582,1111122 
DISL,ioos:station:DISL:MHPA:1,2017-02-05T09:30:00Z,30.6671,-87.9365,7.988,1111122 
DISL,ioos:station:DISL:MHPA:1,2017-02-05T10:00:00Z,30.6671,-87.9365,7.886,1111122 
DISL,ioos:station:DISL:MHPA:1,2017-02-05T10:30:00Z,30.6671,-87.9365,7.886,1111122 
DISL,ioos:station:DISL:MHPA:1,2017-02-05T11:00:00Z,30.6671,-87.9365,7.751,1111122 
DISL,ioos:station:DISL:MHPA:1,2017-02-05T11:30:00Z,30.6671,-87.9365,7.988,1111122 
DISL,ioos:station:DISL:MHPA:1,2017-02-05T12:00:00Z,30.6671,-87.9365,8.39,1111122 
DISL,ioos:station:DISL:MHPA:1,2017-02-05T12:30:00Z,30.6671,-87.9365,9.1,1111122 
DISL,ioos:station:DISL:MHPA:1,2017-02-05T13:00:00Z,30.6671,-87.9365,8.42,1111122 
DISL,ioos:station:DISL:MHPA:1,2017-02-05T13:30:00Z,30.6671,-87.9365,8.28,1111122 
DISL,ioos:station:DISL:MHPA:1,2017-02-05T14:00:00Z,30.6671,-87.9365,10.03,1111122 
DISL,ioos:station:DISL:MHPA:1,2017-02-05T14:30:00Z,30.6671,-87.9365,12.16,1111122 
DISL,ioos:station:DISL:MHPA:1,2017-02-05T15:00:00Z,30.6671,-87.9365,12.42,1111122 
DISL,ioos:station:DISL:MHPA:1,2017-02-05T15:30:00Z,30.6671,-87.9365,13.08,1111122 
DISL,ioos:station:DISL:MHPA:1,2017-02-05T16:00:00Z,30.6671,-87.9365,14.56,1111122 
DISL,ioos:station:DISL:MHPA:1,2017-02-05T16:30:00Z,30.6671,-87.9365,14.76,1111122 
DISL,ioos:station:DISL:MHPA:1,2017-02-05T17:00:00Z,30.6671,-87.9365,15.37,1111122 
DISL,ioos:station:DISL:MHPA:1,2017-02-05T17:30:00Z,30.6671,-87.9365,15.2,1111122 
DISL,ioos:station:DISL:MHPA:1,2017-02-05T18:00:00Z,30.6671,-87.9365,15.26,1111122 
DISL,ioos:station:DISL:MHPA:1,2017-02-05T18:30:00Z,30.6671,-87.9365,15.79,1111122 
DISL,ioos:station:DISL:MHPA:1,2017-02-05T19:00:00Z,30.6671,-87.9365,15.83,1111122 
DISL,ioos:station:DISL:MHPA:1,2017-02-05T19:30:00Z,30.6671,-87.9365,16.6,1111122 
DISL,ioos:station:DISL:MHPA:1,2017-02-05T20:00:00Z,30.6671,-87.9365,16.81,1111122 
DISL,ioos:station:DISL:MHPA:1,2017-02-05T20:30:00Z,30.6671,-87.9365,16.57,1111122 
DISL,ioos:station:DISL:MHPA:1,2017-02-05T21:00:00Z,30.6671,-87.9365,17.06,1111122 
DISL,ioos:station:DISL:MHPA:1,2017-02-05T21:30:00Z,30.6671,-87.9365,16.99,1111122 
DISL,ioos:station:DISL:MHPA:1,2017-02-05T22:00:00Z,30.6671,-87.9365,16.89,1111122 
DISL,ioos:station:DISL:MHPA:1,2017-02-05T22:30:00Z,30.6671,-87.9365,16.96,1111122 
DISL,ioos:station:DISL:MHPA:1,2017-02-05T23:00:00Z,30.6671,-87.9365,16.76,1111122 
DISL,ioos:station:DISL:MHPA:1,2017-02-05T23:30:00Z,30.6671,-87.9365,16.33,1111122 
DISL,ioos:station:DISL:MHPA:1,2017-02-06T00:00:00Z,30.6671,-87.9365,16.18,1111122 
DISL,ioos:station:DISL:MHPA:1,2017-02-06T00:30:00Z,30.6671,-87.9365,16.05,1111122 
DISL,ioos:station:DISL:MHPA:1,2017-02-06T01:00:00Z,30.6671,-87.9365,15.54,1111122 
DISL,ioos:station:DISL:MHPA:1,2017-02-06T01:30:00Z,30.6671,-87.9365,15.57,1111122 
DISL,ioos:station:DISL:MHPA:1,2017-02-06T02:00:00Z,30.6671,-87.9365,15.34,1111122 
DISL,ioos:station:DISL:MHPA:1,2017-02-06T02:30:00Z,30.6671,-87.9365,15.07,1111122 
DISL,ioos:station:DISL:MHPA:1,2017-02-06T03:00:00Z,30.6671,-87.9365,15.07,1111122 
DISL,ioos:station:DISL:MHPA:1,2017-02-06T03:30:00Z,30.6671,-87.9365,15.04,1111122 
DISL,ioos:station:DISL:MHPA:1,2017-02-06T04:00:00Z,30.6671,-87.9365,14.98,1111122 
DISL,ioos:station:DISL:MHPA:1,2017-02-06T04:30:00Z,30.6671,-87.9365,14.94,1111122 
DISL,ioos:station:DISL:MHPA:1,2017-02-06T05:00:00Z,30.6671,-87.9365,15.11,1111122 
DISL,ioos:station:DISL:MHPA:1,2017-02-06T05:30:00Z,30.6671,-87.9365,14.58,1111122 
DISL,ioos:station:DISL:MHPA:1,2017-02-06T06:00:00Z,30.6671,-87.9365,14.28,1111122 
DISL,ioos:station:DISL:MHPA:1,2017-02-06T06:30:00Z,30.6671,-87.9365,14.78,1111122 
DISL,ioos:station:DISL:MHPA:1,2017-02-06T07:00:00Z,30.6671,-87.9365,15.15,1111122 
DISL,ioos:station:DISL:MHPA:1,2017-02-06T07:30:00Z,30.6671,-87.9365,15.45,1111122 
DISL,ioos:station:DISL:MHPA:1,2017-02-06T08:00:00Z,30.6671,-87.9365,15.62,1111122 
DISL,ioos:station:DISL:MHPA:1,2017-02-06T08:30:00Z,30.6671,-87.9365,15.35,1111122 
DISL,ioos:station:DISL:MHPA:1,2017-02-06T09:00:00Z,30.6671,-87.9365,14.2,1111122 
DISL,ioos:station:DISL:MHPA:1,2017-02-06T09:30:00Z,30.6671,-87.9365,14.71,1111122 
DISL,ioos:station:DISL:MHPA:1,2017-02-06T10:00:00Z,30.6671,-87.9365,14.55,1111122 
DISL,ioos:station:DISL:MHPA:1,2017-02-06T10:30:00Z,30.6671,-87.9365,14.38,1111122 
DISL,ioos:station:DISL:MHPA:1,2017-02-06T11:00:00Z,30.6671,-87.9365,14.44,1111122 
DISL,ioos:station:DISL:MHPA:1,2017-02-06T11:30:00Z,30.6671,-87.9365,14.71,1111122 
DISL,ioos:station:DISL:MHPA:1,2017-02-06T12:00:00Z,30.6671,-87.9365,14.74,1111122 
DISL,ioos:station:DISL:MHPA:1,2017-02-06T12:30:00Z,30.6671,-87.9365,14.34,1111122 
DISL,ioos:station:DISL:MHPA:1,2017-02-06T13:00:00Z,30.6671,-87.9365,13.5,1111122 
DISL,ioos:station:DISL:MHPA:1,2017-02-06T13:30:00Z,30.6671,-87.9365,14.28,1111122 
DISL,ioos:station:DISL:MHPA:1,2017-02-06T14:00:00Z,30.6671,-87.9365,14.97,1111122 
DISL,ioos:station:DISL:MHPA:1,2017-02-06T14:30:00Z,30.6671,-87.9365,16.35,1111122 
DISL,ioos:station:DISL:MHPA:1,2017-02-06T15:00:00Z,30.6671,-87.9365,16.18,1111122 
DISL,ioos:station:DISL:MHPA:1,2017-02-06T15:30:00Z,30.6671,-87.9365,16.88,1111122 
DISL,ioos:station:DISL:MHPA:1,2017-02-06T16:00:00Z,30.6671,-87.9365,17.99,1111122 
DISL,ioos:station:DISL:MHPA:1,2017-02-06T16:30:00Z,30.6671,-87.9365,17.53,1111122 
DISL,ioos:station:DISL:MHPA:1,2017-02-06T17:00:00Z,30.6671,-87.9365,17.6,1111122 
DISL,ioos:station:DISL:MHPA:1,2017-02-06T17:30:00Z,30.6671,-87.9365,17.46,1111122 
DISL,ioos:station:DISL:MHPA:1,2017-02-06T18:00:00Z,30.6671,-87.9365,18.34,1111122 
DISL,ioos:station:DISL:MHPA:1,2017-02-06T18:30:00Z,30.6671,-87.9365,18.44,1111122 
DISL,ioos:station:DISL:MHPA:1,2017-02-06T19:00:00Z,30.6671,-87.9365,18.41,1111122 
DISL,ioos:station:DISL:MHPA:1,2017-02-06T19:30:00Z,30.6671,-87.9365,18.58,1111122 
DISL,ioos:station:DISL:MHPA:1,2017-02-06T20:00:00Z,30.6671,-87.9365,18.34,1111122 
DISL,ioos:station:DISL:MHPA:1,2017-02-06T20:30:00Z,30.6671,-87.9365,18.34,1111122 
DISL,ioos:station:DISL:MHPA:1,2017-02-06T21:00:00Z,30.6671,-87.9365,18.85,1111122 
DISL,ioos:station:DISL:MHPA:1,2017-02-06T21:30:00Z,30.6671,-87.9365,19.05,1111122 
DISL,ioos:station:DISL:MHPA:1,2017-02-06T22:00:00Z,30.6671,-87.9365,18.98,1111122 
DISL,ioos:station:DISL:MHPA:1,2017-02-06T22:30:00Z,30.6671,-87.9365,18.95,1111122 
DISL,ioos:station:DISL:MHPA:1,2017-02-06T23:00:00Z,30.6671,-87.9365,19.36,1111122 
DISL,ioos:station:DISL:MHPA:1,2017-02-06T23:30:00Z,30.6671,-87.9365,19.4,1111122 
DISL,ioos:station:DISL:MHPA:1,2017-02-07T00:00:00Z,30.6671,-87.9365,19.54,1111122 
DISL,ioos:station:DISL:MHPA:1,2017-02-07T00:30:00Z,30.6671,-87.9365,19.57,1111122 
DISL,ioos:station:DISL:MHPA:1,2017-02-07T01:00:00Z,30.6671,-87.9365,19.34,1111122 